ニート彗星

212P/NEAT (2024)

English version
Home page
Updated on October 24, 2023

---------------------------------------------------------------------

・ プロフィール

・ 写真集

・ 軌道要素

Epoch 2024 May 10.0 TT = JDT 2460440.5
T 2024 Apr. 25.09320 TT                                 MPCW
q   1.6124514            (2000.0)            P               Q
n   0.12791611     Peri.   14.02317     -0.35687381     -0.85629333
a   3.9010893      Node    97.97530     +0.81662073     -0.48005641
e   0.5866664      Incl.   22.14881     +0.45362062     +0.19054548
P   7.71
From 102 observations 2000 Dec. 1-2017 Mar. 30, mean residual 0".6.

・ 光度変化

        H = 16.0  G = 0.15

---------------------------------------------------------------------

軌道要素はM.P.E.C. 2017-J52に掲載されたものです。
光度グラフはComet for Windowsで作成したものです。

---------------------------------------------------------------------

Copyright(C) Seiichi Yoshida (comet@aerith.net). All rights reserved.